| time (UTC) | temp F | wind direction | speed MPH | gust MPH | rain 1hr in | rain 24hr in | rain mn in | humidity % | barometer mb |
| 20260906073507 | 86 | 87 | 3.0 | 5.0 | 0.00 | 0.00 | 0.00 | 36 | 1019.1 |
| 20260906073007 | 86 | 123 | 3.0 | 4.0 | 0.00 | 0.00 | 0.00 | 36 | 1019.0 |
| 20260906072007 | 86 | 142 | 3.0 | 4.0 | 0.00 | 0.00 | 0.00 | 36 | 1019.0 |
| 20260906071507 | 85 | 140 | 3.0 | 4.0 | 0.00 | 0.00 | 0.00 | 36 | 1018.9 |
| 20260906071007 | 85 | 136 | 2.0 | 4.0 | 0.00 | 0.00 | 0.00 | 36 | 1018.9 |
| 20260906070507 | 85 | 233 | 1.0 | 2.0 | 0.00 | 0.00 | 0.00 | 37 | 1018.7 |
| 20260906070007 | 84 | 237 | 2.0 | 2.0 | 0.00 | 0.00 | 0.00 | 37 | 1018.7 |
| 20260906064507 | 83 | 202 | 1.0 | 3.0 | 0.00 | 0.00 | 0.00 | 38 | 1018.7 |
| 20260906064007 | 83 | 193 | 2.0 | 3.0 | 0.00 | 0.00 | 0.00 | 38 | 1018.5 |
| 20260906063007 | 82 | 174 | 1.0 | 2.0 | 0.00 | 0.00 | 0.00 | 39 | 1018.6 |
| 20260906062507 | 82 | 125 | 2.0 | 2.0 | 0.00 | 0.00 | 0.00 | 39 | 1018.5 |
| 20260906062007 | 82 | 243 | 2.0 | 2.0 | 0.00 | 0.00 | 0.00 | 39 | 1018.5 |
| 20260906061507 | 81 | 252 | 2.0 | 2.0 | 0.00 | 0.00 | 0.00 | 44 | 1018.5 |
| 20260906061007 | 80 | 196 | 2.0 | 4.0 | 0.00 | 0.00 | 0.00 | 45 | 1018.5 |
| 20260906060507 | 80 | 139 | 2.0 | 4.0 | 0.00 | 0.00 | 0.00 | 45 | 1018.6 |
| 20260906060008 | 81 | 54 | 2.0 | 4.0 | 0.00 | 0.00 | 0.00 | 44 | 1018.5 |
| 20260906055507 | 81 | 329 | 2.0 | 3.0 | 0.00 | 0.00 | 0.00 | 44 | 1018.4 |
| 20260906055007 | 81 | 337 | 2.0 | 3.0 | 0.00 | 0.00 | 0.00 | 44 | 1018.4 |
| 20260906054506 | 81 | 329 | 1.0 | 3.0 | 0.00 | 0.00 | 0.00 | 44 | 1018.5 |
| 20260906054007 | 80 | 294 | 1.0 | 2.0 | 0.00 | 0.00 | 0.00 | 44 | 1018.5 |
| 20260906053507 | 80 | 258 | 2.0 | 3.0 | 0.00 | 0.00 | 0.00 | 42 | 1018.5 |
| 20260906052007 | 78 | 270 | 2.0 | 3.0 | 0.00 | 0.00 | 0.00 | 44 | 1018.5 |
| 20260906051507 | 78 | 292 | 2.0 | 3.0 | 0.00 | 0.00 | 0.00 | 45 | 1018.4 |
| 20260906051007 | 78 | 275 | 2.0 | 3.0 | 0.00 | 0.00 | 0.00 | 45 | 1018.5 |
| 20260906045007 | 76 | 39 | 1.0 | 2.0 | 0.00 | 0.00 | 0.00 | 47 | 1018.2 |
| 20260906044507 | 76 | 59 | 1.0 | 2.0 | 0.00 | 0.00 | 0.00 | 48 | 1018.4 |
| 20260906044007 | 76 | 197 | 1.0 | 2.0 | 0.00 | 0.00 | 0.00 | 48 | 1018.2 |
| 20260906043506 | 76 | 206 | 1.0 | 2.0 | 0.00 | 0.00 | 0.00 | 48 | 1018.3 |
| 20260906043007 | 76 | 208 | 1.0 | 2.0 | 0.00 | 0.00 | 0.00 | 47 | 1018.2 |
| 20260906042507 | 76 | 115 | 1.0 | 2.0 | 0.00 | 0.00 | 0.00 | 47 | 1018.1 |
| 20260906042007 | 76 | 126 | 1.0 | 2.0 | 0.00 | 0.00 | 0.00 | 47 | 1018.0 |
| 20260906041507 | 76 | 65 | 1.0 | 2.0 | 0.00 | 0.00 | 0.00 | 48 | 1018.0 |
| 20260906041007 | 76 | 49 | 1.0 | 3.0 | 0.00 | 0.00 | 0.00 | 47 | 1017.8 |
| 20260906040507 | 76 | 53 | 2.0 | 3.0 | 0.00 | 0.00 | 0.00 | 47 | 1017.8 |
| 20260906040007 | 76 | 46 | 1.0 | 2.0 | 0.00 | 0.00 | 0.00 | 47 | 1017.9 |
| 20260906035007 | 76 | 30 | 1.0 | 2.0 | 0.00 | 0.00 | 0.00 | 48 | 1017.8 |
| 20260906034507 | 76 | 357 | 1.0 | 1.0 | 0.00 | 0.00 | 0.00 | 48 | 1017.9 |
| 20260906034007 | 76 | 191 | 1.0 | 2.0 | 0.00 | 0.00 | 0.00 | 48 | 1017.7 |
| 20260906033506 | 76 | 172 | 2.0 | 2.0 | 0.00 | 0.00 | 0.00 | 49 | 1017.8 |
| 20260906032507 | 75 | 213 | 1.0 | 2.0 | 0.00 | 0.00 | 0.00 | 50 | 1017.7 |
| 20260906032007 | 75 | 234 | 1.0 | 2.0 | 0.00 | 0.00 | 0.00 | 51 | 1017.6 |
| 20260906031506 | 76 | 284 | 1.0 | 2.0 | 0.00 | 0.00 | 0.00 | 50 | 1017.6 |
| 20260906031007 | 76 | 16 | 2.0 | 3.0 | 0.00 | 0.00 | 0.00 | 49 | 1017.6 |
| 20260906030506 | 76 | 54 | 2.0 | 4.0 | 0.00 | 0.00 | 0.00 | 49 | 1017.5 |
| 20260906030007 | 75 | 75 | 2.0 | 4.0 | 0.00 | 0.00 | 0.00 | 50 | 1017.5 |
| 20260906025507 | 76 | 77 | 1.0 | 4.0 | 0.00 | 0.00 | 0.00 | 49 | 1017.5 |
| 20260906025007 | 76 | 58 | 1.0 | 2.0 | 0.00 | 0.00 | 0.00 | 48 | 1017.6 |
| 20260906024506 | 76 | 32 | 1.0 | 2.0 | 0.00 | 0.00 | 0.00 | 48 | 1017.5 |
| 20260906024007 | 76 | 43 | 2.0 | 3.0 | 0.00 | 0.00 | 0.00 | 48 | 1017.3 |
| 20260906023507 | 76 | 92 | 2.0 | 3.0 | 0.00 | 0.00 | 0.00 | 49 | 1017.6 |
| 20260906023006 | 77 | 174 | 2.0 | 3.0 | 0.00 | 0.00 | 0.00 | 49 | 1017.2 |
| 20260906022007 | 77 | 307 | 1.0 | 3.0 | 0.00 | 0.00 | 0.00 | 49 | 1017.3 |
| 20260906021507 | 77 | 223 | 1.0 | 2.0 | 0.00 | 0.00 | 0.00 | 49 | 1017.3 |
| 20260906021006 | 77 | 238 | 1.0 | 1.0 | 0.00 | 0.00 | 0.00 | 49 | 1017.4 |
| 20260906020507 | 77 | 288 | 1.0 | 1.0 | 0.00 | 0.00 | 0.00 | 49 | 1017.4 |
| 20260906020007 | 77 | 338 | 1.0 | 2.0 | 0.00 | 0.00 | 0.00 | 49 | 1017.3 |
| 20260906015507 | 76 | 334 | 1.0 | 2.0 | 0.00 | 0.00 | 0.00 | 49 | 1017.5 |
| 20260906015007 | 77 | 279 | 1.0 | 1.0 | 0.00 | 0.00 | 0.00 | 49 | 1017.5 |
| 20260906014007 | 77 | 90 | 2.0 | 3.0 | 0.00 | 0.00 | 0.00 | 49 | 1017.4 |
| 20260906013506 | 77 | 200 | 1.0 | 2.0 | 0.00 | 0.00 | 0.00 | 49 | 1017.4 |
| 20260906013007 | 78 | 221 | 1.0 | 2.0 | 0.00 | 0.00 | 0.00 | 48 | 1017.6 |
| 20260906012507 | 77 | 355 | 1.0 | 2.0 | 0.00 | 0.00 | 0.00 | 49 | 1017.5 |
| 20260906012007 | 77 | 31 | 1.0 | 2.0 | 0.00 | 0.00 | 0.00 | 49 | 1017.4 |
| 20260906011507 | 78 | 238 | 2.0 | 2.0 | 0.00 | 0.00 | 0.00 | 48 | 1017.2 |
| 20260906010507 | 78 | 270 | 1.0 | 2.0 | 0.00 | 0.00 | 0.00 | 48 | 1017.6 |
| 20260906010006 | 78 | 225 | 0.0 | 1.0 | 0.00 | 0.00 | 0.00 | 48 | 1017.4 |
| 20260906005507 | 77 | 249 | 0.0 | 1.0 | 0.00 | 0.00 | 0.00 | 48 | 1017.6 |
| 20260906005007 | 77 | 310 | 1.0 | 3.0 | 0.00 | 0.00 | 0.00 | 48 | 1017.5 |
| 20260906003507 | 78 | 218 | 0.0 | 1.0 | 0.00 | 0.00 | 0.00 | 48 | 1017.5 |
| 20260906003006 | 78 | 222 | 1.0 | 1.0 | 0.00 | 0.00 | 0.00 | 48 | 1017.4 |
| 20260906001007 | 78 | 90 | 2.0 | 3.0 | 0.00 | 0.00 | 0.00 | 47 | 1017.6 |
| 20260906000507 | 79 | 184 | 2.0 | 3.0 | 0.00 | 0.00 | 0.00 | 46 | 1017.7 |
| 20260906000007 | 80 | 277 | 2.0 | 3.0 | 0.00 | 0.00 | 0.00 | 45 | 1017.7 |
| 20260905235506 | 80 | 262 | 2.0 | 3.0 | 0.00 | 0.00 | 0.00 | 45 | 1017.5 |
| 20260905235007 | 80 | 278 | 2.0 | 3.0 | 0.00 | 0.00 | 0.00 | 45 | 1017.6 |
| 20260905234507 | 80 | 313 | 2.0 | 3.0 | 0.00 | 0.00 | 0.00 | 45 | 1017.8 |
| 20260905234006 | 80 | 304 | 2.0 | 3.0 | 0.00 | 0.00 | 0.00 | 45 | 1017.7 |
| 20260905233507 | 80 | 312 | 1.0 | 2.0 | 0.00 | 0.00 | 0.00 | 46 | 1017.8 |
| 20260905233007 | 79 | 333 | 0.0 | 2.0 | 0.00 | 0.00 | 0.00 | 46 | 1017.8 |
| 20260905232506 | 80 | 181 | 0.0 | 1.0 | 0.00 | 0.00 | 0.00 | 46 | 1017.7 |
| 20260905232007 | 80 | 184 | 1.0 | 3.0 | 0.00 | 0.00 | 0.00 | 46 | 1017.9 |
| 20260905231507 | 80 | 204 | 2.0 | 3.0 | 0.00 | 0.00 | 0.00 | 45 | 1017.7 |
| 20260905231007 | 80 | 257 | 1.0 | 3.0 | 0.00 | 0.00 | 0.00 | 45 | 1017.9 |
| 20260905230506 | 80 | 266 | 2.0 | 3.0 | 0.00 | 0.00 | 0.00 | 45 | 1017.9 |
| 20260905230007 | 81 | 248 | 2.0 | 3.0 | 0.00 | 0.00 | 0.00 | 44 | 1017.8 |
| 20260905225507 | 81 | 201 | 2.0 | 3.0 | 0.00 | 0.00 | 0.00 | 44 | 1017.9 |
| 20260905225006 | 81 | 239 | 3.0 | 4.0 | 0.00 | 0.00 | 0.00 | 43 | 1017.7 |
| 20260905224507 | 81 | 331 | 4.0 | 5.0 | 0.00 | 0.00 | 0.00 | 43 | 1017.6 |
| 20260905224007 | 81 | 358 | 5.0 | 7.0 | 0.00 | 0.00 | 0.00 | 42 | 1017.6 |
| 20260905223507 | 81 | 345 | 5.0 | 7.0 | 0.00 | 0.00 | 0.00 | 44 | 1017.7 |
| 20260905223006 | 81 | 314 | 3.0 | 5.0 | 0.00 | 0.00 | 0.00 | 44 | 1017.6 |
| 20260905222507 | 81 | 304 | 3.0 | 5.0 | 0.00 | 0.00 | 0.00 | 45 | 1017.8 |
| 20260905222007 | 81 | 274 | 4.0 | 6.0 | 0.00 | 0.00 | 0.00 | 45 | 1017.5 |
| 20260905221007 | 81 | 321 | 5.0 | 9.0 | 0.00 | 0.00 | 0.00 | 45 | 1017.4 |
| 20260905220507 | 81 | 342 | 8.0 | 11.0 | 0.00 | 0.00 | 0.00 | 44 | 1017.5 |
| 20260905220007 | 81 | 4 | 10.0 | 11.0 | 0.00 | 0.00 | 0.00 | 45 | 1017.4 |
| 20260905215507 | 81 | 18 | 10.0 | 11.0 | 0.00 | 0.00 | 0.00 | 45 | 1017.3 |
| 20260905215007 | 81 | 7 | 10.0 | 11.0 | 0.00 | 0.00 | 0.00 | 45 | 1017.2 |
| 20260905214006 | 81 | 349 | 6.0 | 9.0 | 0.00 | 0.00 | 0.00 | 45 | 1017.3 |
| 20260905213507 | 81 | 345 | 5.0 | 7.0 | 0.00 | 0.00 | 0.00 | 45 | 1017.4 |
| 20260905213007 | 81 | 345 | 4.0 | 7.0 | 0.00 | 0.00 | 0.00 | 45 | 1017.2 |
| 20260905212507 | 82 | 9 | 5.0 | 7.0 | 0.00 | 0.00 | 0.00 | 40 | 1017.6 |
| 20260905211507 | 82 | 354 | 6.0 | 7.0 | 0.00 | 0.00 | 0.00 | 39 | 1017.4 |
| 20260905211007 | 82 | 356 | 6.0 | 9.0 | 0.00 | 0.00 | 0.00 | 40 | 1017.5 |
| 20260905210507 | 82 | 6 | 7.0 | 9.0 | 0.00 | 0.00 | 0.00 | 40 | 1017.5 |
| 20260905205506 | 82 | 356 | 7.0 | 9.0 | 0.00 | 0.00 | 0.00 | 40 | 1017.6 |
| 20260905205007 | 82 | 1 | 7.0 | 8.0 | 0.00 | 0.00 | 0.00 | 39 | 1017.6 |
| 20260905204507 | 82 | 6 | 7.0 | 9.0 | 0.00 | 0.00 | 0.00 | 40 | 1017.7 |
| 20260905204006 | 82 | 356 | 7.0 | 9.0 | 0.00 | 0.00 | 0.00 | 39 | 1017.9 |
| 20260905203506 | 82 | 345 | 8.0 | 9.0 | 0.00 | 0.00 | 0.00 | 40 | 1017.9 |
| 20260905203007 | 82 | 350 | 8.0 | 9.0 | 0.00 | 0.00 | 0.00 | 40 | 1017.9 |
| 20260905202507 | 82 | 351 | 6.0 | 9.0 | 0.00 | 0.00 | 0.00 | 40 | 1018.0 |
| 20260905202006 | 82 | 330 | 4.0 | 7.0 | 0.00 | 0.00 | 0.00 | 41 | 1018.0 |
| 20260905201507 | 82 | 321 | 3.0 | 4.0 | 0.00 | 0.00 | 0.00 | 40 | 1018.3 |
| 20260905201007 | 83 | 323 | 2.0 | 3.0 | 0.00 | 0.00 | 0.00 | 38 | 1018.4 |
| 20260905200009 | 83 | 283 | 2.0 | 3.0 | 0.00 | 0.00 | 0.00 | 38 | 1018.7 |
| 20260905195006 | 83 | 294 | 2.0 | 4.0 | 0.00 | 0.00 | 0.00 | 37 | 1019.1 |
| 20260905193007 | 83 | 269 | 1.0 | 2.0 | 0.00 | 0.00 | 0.00 | 37 | 1019.1 |
| 20260905192506 | 83 | 284 | 1.0 | 2.0 | 0.00 | 0.00 | 0.00 | 36 | 1019.0 |
| 20260905191007 | 84 | 314 | 1.0 | 1.0 | 0.00 | 0.00 | 0.00 | 36 | 1019.1 |
| 20260905190507 | 84 | 314 | 1.0 | 1.0 | 0.00 | 0.00 | 0.00 | 36 | 1019.0 |
| 20260905190007 | 84 | 336 | 2.0 | 2.0 | 0.00 | 0.00 | 0.00 | 36 | 1018.9 |
| 20260905185507 | 84 | 17 | 2.0 | 2.0 | 0.00 | 0.00 | 0.00 | 36 | 1018.9 |
| 20260905185007 | 84 | 36 | 2.0 | 3.0 | 0.00 | 0.00 | 0.00 | 36 | 1019.0 |
| 20260905184507 | 85 | 51 | 2.0 | 3.0 | 0.00 | 0.00 | 0.00 | 36 | 1019.0 |
| 20260905184007 | 85 | 52 | 2.0 | 3.0 | 0.00 | 0.00 | 0.00 | 36 | 1018.6 |
| 20260905183507 | 85 | 62 | 2.0 | 3.0 | 0.00 | 0.00 | 0.00 | 36 | 1018.7 |
| 20260905182506 | 85 | 89 | 3.0 | 4.0 | 0.00 | 0.00 | 0.00 | 36 | 1018.6 |
| 20260905182010 | 85 | 96 | 3.0 | 4.0 | 0.00 | 0.00 | 0.00 | 36 | 1018.5 |
| 20260905181507 | 85 | 70 | 4.0 | 6.0 | 0.00 | 0.00 | 0.00 | 36 | 1018.4 |
| 20260905181007 | 85 | 74 | 4.0 | 6.0 | 0.00 | 0.00 | 0.00 | 36 | 1018.3 |
| 20260905180507 | 85 | 101 | 5.0 | 6.0 | 0.00 | 0.00 | 0.00 | 36 | 1018.2 |
| 20260905175507 | 85 | 73 | 5.0 | 7.0 | 0.00 | 0.00 | 0.00 | 36 | 1018.0 |
| 20260905175007 | 86 | 65 | 6.0 | 7.0 | 0.00 | 0.00 | 0.00 | 36 | 1018.2 |
| 20260905174506 | 86 | 71 | 6.0 | 7.0 | 0.00 | 0.00 | 0.00 | 36 | 1018.1 |
| 20260905174007 | 86 | 74 | 6.0 | 7.0 | 0.00 | 0.00 | 0.00 | 36 | 1018.1 |
| 20260905173007 | 86 | 83 | 6.0 | 8.0 | 0.00 | 0.00 | 0.00 | 37 | 1018.0 |
| 20260905172506 | 86 | 86 | 7.0 | 9.0 | 0.00 | 0.00 | 0.00 | 37 | 1018.0 |
| 20260905171007 | 86 | 74 | 7.0 | 10.0 | 0.00 | 0.00 | 0.00 | 38 | 1017.8 |
| 20260905170506 | 86 | 81 | 6.0 | 8.0 | 0.00 | 0.00 | 0.00 | 38 | 1017.8 |
| 20260905170007 | 87 | 90 | 7.0 | 10.0 | 0.00 | 0.00 | 0.00 | 37 | 1017.7 |
| 20260905165507 | 87 | 126 | 6.0 | 10.0 | 0.00 | 0.00 | 0.00 | 37 | 1017.8 |
| 20260905165006 | 87 | 107 | 6.0 | 9.0 | 0.00 | 0.00 | 0.00 | 37 | 1017.7 |
| 20260905164507 | 87 | 59 | 6.0 | 9.0 | 0.00 | 0.00 | 0.00 | 36 | 1017.8 |
| 20260905164007 | 88 | 67 | 5.0 | 7.0 | 0.00 | 0.00 | 0.00 | 36 | 1017.7 |
| 20260905163506 | 88 | 86 | 5.0 | 10.0 | 0.00 | 0.00 | 0.00 | 36 | 1017.6 |
| 20260905162507 | 89 | 95 | 6.0 | 9.0 | 0.00 | 0.00 | 0.00 | 37 | 1017.5 |
| 20260905162007 | 89 | 110 | 5.0 | 9.0 | 0.00 | 0.00 | 0.00 | 37 | 1017.7 |
| 20260905161507 | 90 | 117 | 6.0 | 9.0 | 0.00 | 0.00 | 0.00 | 36 | 1017.7 |
| 20260905161007 | 89 | 126 | 7.0 | 9.0 | 0.00 | 0.00 | 0.00 | 36 | 1017.7 |
| 20260905160507 | 90 | 107 | 7.0 | 9.0 | 0.00 | 0.00 | 0.00 | 37 | 1017.8 |
| 20260905155507 | 90 | 121 | 6.0 | 9.0 | 0.00 | 0.00 | 0.00 | 36 | 1017.6 |
| 20260905155007 | 90 | 117 | 6.0 | 7.0 | 0.00 | 0.00 | 0.00 | 34 | 1017.9 |
| 20260905154506 | 90 | 109 | 8.0 | 11.0 | 0.00 | 0.00 | 0.00 | 33 | 1017.5 |
| 20260905154006 | 90 | 102 | 8.0 | 11.0 | 0.00 | 0.00 | 0.00 | 32 | 1017.6 |
| 20260905153507 | 91 | 90 | 7.0 | 11.0 | 0.00 | 0.00 | 0.00 | 32 | 1017.7 |
| 20260905152507 | 91 | 110 | 6.0 | 8.0 | 0.00 | 0.00 | 0.00 | 32 | 1017.7 |
| 20260905152006 | 92 | 96 | 6.0 | 9.0 | 0.00 | 0.00 | 0.00 | 31 | 1017.5 |
| 20260905151507 | 91 | 93 | 7.0 | 10.0 | 0.00 | 0.00 | 0.00 | 31 | 1017.4 |
| 20260905151007 | 91 | 111 | 8.0 | 10.0 | 0.00 | 0.00 | 0.00 | 30 | 1017.8 |
| 20260905150506 | 92 | 99 | 7.0 | 8.0 | 0.00 | 0.00 | 0.00 | 30 | 1017.8 |
| 20260905150007 | 92 | 101 | 7.0 | 10.0 | 0.00 | 0.00 | 0.00 | 30 | 1018.0 |
| 20260905145508 | 92 | 91 | 8.0 | 10.0 | 0.00 | 0.00 | 0.00 | 30 | 1017.5 |
| 20260905145007 | 92 | 99 | 8.0 | 11.0 | 0.00 | 0.00 | 0.00 | 30 | 1017.7 |
| 20260905144507 | 92 | 148 | 8.0 | 11.0 | 0.00 | 0.00 | 0.00 | 29 | 1017.6 |
| 20260905144006 | 92 | 102 | 9.0 | 11.0 | 0.00 | 0.00 | 0.00 | 29 | 1017.4 |
| 20260905143507 | 92 | 102 | 9.0 | 11.0 | 0.00 | 0.00 | 0.00 | 28 | 1017.4 |
| 20260905143007 | 92 | 100 | 9.0 | 11.0 | 0.00 | 0.00 | 0.00 | 28 | 1017.5 |
| 20260905142506 | 92 | 119 | 8.0 | 11.0 | 0.00 | 0.00 | 0.00 | 28 | 1017.6 |
| 20260905142007 | 92 | 118 | 9.0 | 12.0 | 0.00 | 0.00 | 0.00 | 28 | 1017.6 |
| 20260905141507 | 92 | 116 | 9.0 | 12.0 | 0.00 | 0.00 | 0.00 | 27 | 1017.6 |
| 20260905141006 | 92 | 102 | 7.0 | 10.0 | 0.00 | 0.00 | 0.00 | 27 | 1017.6 |
| 20260905140507 | 93 | 110 | 7.0 | 10.0 | 0.00 | 0.00 | 0.00 | 27 | 1017.6 |
| 20260905140007 | 92 | 123 | 9.0 | 12.0 | 0.00 | 0.00 | 0.00 | 27 | 1017.4 |
| 20260905135507 | 92 | 112 | 9.0 | 12.0 | 0.00 | 0.00 | 0.00 | 27 | 1017.7 |
| 20260905135006 | 92 | 99 | 9.0 | 13.0 | 0.00 | 0.00 | 0.00 | 27 | 1017.6 |
| 20260905134507 | 92 | 117 | 10.0 | 13.0 | 0.00 | 0.00 | 0.00 | 27 | 1017.7 |
| 20260905134007 | 92 | 118 | 10.0 | 12.0 | 0.00 | 0.00 | 0.00 | 27 | 1017.6 |
| 20260905133506 | 93 | 105 | 10.0 | 12.0 | 0.00 | 0.00 | 0.00 | 27 | 1017.6 |
| 20260905132507 | 93 | 107 | 8.0 | 12.0 | 0.00 | 0.00 | 0.00 | 27 | 1017.8 |
| 20260905132007 | 93 | 84 | 9.0 | 11.0 | 0.00 | 0.00 | 0.00 | 26 | 1017.9 |
| 20260905131506 | 93 | 84 | 9.0 | 11.0 | 0.00 | 0.00 | 0.00 | 27 | 1017.8 |
| 20260905131007 | 93 | 148 | 8.0 | 11.0 | 0.00 | 0.00 | 0.00 | 27 | 1017.7 |
| 20260905130507 | 93 | 129 | 9.0 | 11.0 | 0.00 | 0.00 | 0.00 | 26 | 1017.8 |
| 20260905130006 | 93 | 27 | 9.0 | 11.0 | 0.00 | 0.00 | 0.00 | 26 | 1017.9 |
| 20260905125507 | 93 | 118 | 9.0 | 11.0 | 0.00 | 0.00 | 0.00 | 26 | 1017.8 |
| 20260905125007 | 93 | 105 | 9.0 | 11.0 | 0.00 | 0.00 | 0.00 | 27 | 1017.8 |
| 20260905124006 | 93 | 106 | 8.0 | 11.0 | 0.00 | 0.00 | 0.00 | 27 | 1018.1 |
| 20260905123507 | 93 | 86 | 9.0 | 11.0 | 0.00 | 0.00 | 0.00 | 26 | 1018.0 |
| 20260905122507 | 93 | 101 | 8.0 | 9.0 | 0.00 | 0.00 | 0.00 | 27 | 1018.2 |
| 20260905121508 | 93 | 89 | 9.0 | 11.0 | 0.00 | 0.00 | 0.00 | 27 | 1018.4 |
| 20260905121006 | 93 | 62 | 8.0 | 9.0 | 0.00 | 0.00 | 0.00 | 27 | 1018.3 |
| 20260905120007 | 93 | 89 | 7.0 | 10.0 | 0.00 | 0.00 | 0.00 | 27 | 1018.6 |
| 20260905115006 | 94 | 147 | 7.0 | 11.0 | 0.00 | 0.00 | 0.00 | 27 | 1018.4 |
| 20260905114007 | 93 | 103 | 7.0 | 13.0 | 0.00 | 0.00 | 0.00 | 28 | 1018.7 |
| 20260905113507 | 93 | 119 | 6.0 | 9.0 | 0.00 | 0.00 | 0.00 | 27 | 1018.7 |
| 20260905112506 | 94 | 101 | 6.0 | 8.0 | 0.00 | 0.00 | 0.00 | 27 | 1018.7 |
| 20260905112007 | 93 | 148 | 6.0 | 7.0 | 0.00 | 0.00 | 0.00 | 27 | 1018.9 |
| 20260905111507 | 93 | 128 | 7.0 | 11.0 | 0.00 | 0.00 | 0.00 | 27 | 1019.0 |
| 20260905111006 | 92 | 131 | 9.0 | 11.0 | 0.00 | 0.00 | 0.00 | 27 | 1018.7 |
| 20260905110507 | 93 | 133 | 7.0 | 11.0 | 0.00 | 0.00 | 0.00 | 27 | 1019.0 |
| 20260905110006 | 93 | 134 | 5.0 | 10.0 | 0.00 | 0.00 | 0.00 | 27 | 1018.9 |
| 20260905105007 | 92 | 124 | 10.0 | 13.0 | 0.00 | 0.00 | 0.00 | 27 | 1018.9 |
| 20260905104506 | 92 | 118 | 9.0 | 11.0 | 0.00 | 0.00 | 0.00 | 27 | 1018.9 |
| 20260905104006 | 92 | 122 | 8.0 | 11.0 | 0.00 | 0.00 | 0.00 | 26 | 1018.8 |
| 20260905103507 | 93 | 116 | 7.0 | 11.0 | 0.00 | 0.00 | 0.00 | 26 | 1019.0 |
| 20260905103007 | 93 | 148 | 6.0 | 8.0 | 0.00 | 0.00 | 0.00 | 25 | 1019.0 |
| 20260905102506 | 93 | 195 | 6.0 | 7.0 | 0.00 | 0.00 | 0.00 | 25 | 1018.8 |
| 20260905102007 | 92 | 187 | 6.0 | 9.0 | 0.00 | 0.00 | 0.00 | 25 | 1019.1 |
| 20260905101507 | 93 | 136 | 5.0 | 9.0 | 0.00 | 0.00 | 0.00 | 25 | 1018.9 |
| 20260905101006 | 93 | 139 | 6.0 | 9.0 | 0.00 | 0.00 | 0.00 | 25 | 1019.2 |
| 20260905100507 | 92 | 134 | 7.0 | 11.0 | 0.00 | 0.00 | 0.00 | 25 | 1019.2 |
| 20260905100006 | 92 | 148 | 6.0 | 11.0 | 0.00 | 0.00 | 0.00 | 25 | 1019.0 |
| 20260905095506 | 92 | 184 | 5.0 | 7.0 | 0.00 | 0.00 | 0.00 | 25 | 1019.3 |
| 20260905095007 | 92 | 166 | 6.0 | 9.0 | 0.00 | 0.00 | 0.00 | 25 | 1019.4 |
| 20260905094507 | 92 | 148 | 5.0 | 9.0 | 0.00 | 0.00 | 0.00 | 25 | 1019.3 |
| 20260905094006 | 92 | 183 | 4.0 | 7.0 | 0.00 | 0.00 | 0.00 | 25 | 1019.3 |
| 20260905093507 | 92 | 187 | 5.0 | 7.0 | 0.00 | 0.00 | 0.00 | 25 | 1019.4 |
| 20260905093007 | 92 | 161 | 4.0 | 7.0 | 0.00 | 0.00 | 0.00 | 25 | 1019.4 |
| 20260905092507 | 92 | 175 | 3.0 | 7.0 | 0.00 | 0.00 | 0.00 | 25 | 1019.5 |
| 20260905092006 | 91 | 216 | 3.0 | 5.0 | 0.00 | 0.00 | 0.00 | 25 | 1019.5 |
| 20260905091507 | 91 | 214 | 4.0 | 5.0 | 0.00 | 0.00 | 0.00 | 25 | 1019.4 |
| 20260905091007 | 91 | 176 | 4.0 | 5.0 | 0.00 | 0.00 | 0.00 | 25 | 1019.6 |
| 20260905090506 | 91 | 128 | 3.0 | 5.0 | 0.00 | 0.00 | 0.00 | 25 | 1019.6 |
| 20260905090007 | 91 | 113 | 3.0 | 4.0 | 0.00 | 0.00 | 0.00 | 25 | 1019.6 |
| 20260905085507 | 90 | 148 | 3.0 | 5.0 | 0.00 | 0.00 | 0.00 | 25 | 1019.8 |
| 20260905085006 | 90 | 153 | 4.0 | 5.0 | 0.00 | 0.00 | 0.00 | 27 | 1019.7 |
| 20260905083008 | 88 | 160 | 4.0 | 5.0 | 0.00 | 0.00 | 0.00 | 29 | 1019.7 |
| 20260905082507 | 87 | 194 | 5.0 | 7.0 | 0.00 | 0.00 | 0.00 | 30 | 1019.9 |
| 20260905082006 | 87 | 233 | 5.0 | 7.0 | 0.00 | 0.00 | 0.00 | 30 | 1019.8 |
| 20260905081506 | 87 | 211 | 5.0 | 6.0 | 0.00 | 0.00 | 0.00 | 31 | 1020.0 |
| 20260905081007 | 87 | 176 | 4.0 | 5.0 | 0.00 | 0.00 | 0.00 | 31 | 1019.9 |
| 20260905080506 | 87 | 158 | 3.0 | 5.0 | 0.00 | 0.00 | 0.00 | 31 | 1019.7 |
| 20260905080006 | 87 | 114 | 2.0 | 4.0 | 0.00 | 0.00 | 0.00 | 31 | 1019.9 |
| 20260905075007 | 86 | 196 | 3.0 | 5.0 | 0.00 | 0.00 | 0.00 | 33 | 1019.9 |
| 20260905074506 | 85 | 205 | 3.0 | 5.0 | 0.00 | 0.00 | 0.00 | 33 | 1019.9 |
| 20260905074007 | 86 | 168 | 2.0 | 5.0 | 0.00 | 0.00 | 0.00 | 34 | 1019.8 |